Regional Weather Roundup
Issued by NWS Bismarck, ND

Home | Current Version | Previous Version | Text Only | Print | Product List | Glossary On
Versions: 1 2 3 4 5 6 7 8 9 10 11 12 13 14 15 16 17 18 19 20 21 22 23 24 25 26 27 28 29 30 31 32 33 34 35 36 37 38 39 40 41 42 43 44 45 46 47 48 49 50
000
ASUS43 KBIS 260510
RWRBIS

NWR BROADCAST TEXT
NATIONAL WEATHER SERVICE BISMARCK ND
1100 PM CST SAT FEB 25 2017

NOTE: "FAIR" INDICATES FEW OR NO CLOUDS BELOW 12,000 FEET WITH NO
SIGNIFICANT WEATHER AND/OR OBSTRUCTIONS TO VISIBILITY.


CITY           SKY/WX    TMP DP  RH WIND       PRES   REMARKS
WILLISTON      FAIR       3   1  91 CALM      29.71S
MINOT          FAIR      10   6  84 NW8       29.70R WCI  -2
MINOT AFB      FAIR       2  -2  85 NW7       29.69S WCI -11
BISMARCK       CLOUDY    28  25  88 W12       29.67R WCI  18
DICKINSON      CLOUDY    21  18  88 NW7       29.63R WCI  12
GARRISON         N/A     14   9  80 NE10      29.68R WCI   1
HETTINGER ARPT FAIR      16  14  92 W8        29.67S WCI   5
JAMESTOWN      CLOUDY    20  17  88 S10       29.65F WCI   9
CARRINGTON     LGT SNOW  21  19  93 NE5       29.67R WCI  15
HAZEN          CLOUDY   N/A N/A N/A NE8       29.71R
MANDAN         FLURRIES  25  25 100 W14       29.66R WCI  13
RUGBY          LGT SNOW  14  14 100 NW5       29.70R WCI   6
STANLEY        MOCLDY     0   0 100 CALM      29.70R
TIOGA          FLURRIES  -2  -2 100 W5        29.70R WCI -12
WATFORD CITY   FAIR       7   5  92 CALM      29.70S
$$

CITY           SKY/WX    TMP DP  RH WIND       PRES   REMARKS
GRAND FORKS    CLOUDY    17   8  67 N9        29.73F WCI   6
GRAND FORKS AF LGT SNOW  16  10  79 NE7       29.72S WCI   6
DEVILS LAKE    LGT SNOW  14  10  85 NE6       29.70R VSB 3/4 WCI   5
FARGO          FAIR      22  20  92 W3        29.71S
CAVALIER         N/A     12   7  79 N7        29.74S WCI   2
GRAFTON        CLOUDY    14  10  85 N8        29.76S WCI   3
GWINNER        FAIR      23  23 100 SW5       29.71F WCI  17
ROLLA          MOCLDY     9   5  85 N8        29.68S WCI  -4
$$

CITY           SKY/WX    TMP DP  RH WIND       PRES   REMARKS
ABERDEEN       FAIR      19  16  88 S5        29.73F WCI  12
MOBRIDGE       MOCLDY    26  21  81 S6        29.67F WCI  19
BUFFALO          N/A     19  15  84 W8        29.60S WCI   9
RAPID CITY     FAIR      20  17  88 NW9       29.72S WCI   9
GLASGOW        FAIR      17  13  84 E13       29.65S WCI   4
SIDNEY         MOCLDY    13  10  88 CALM      29.71S
WOLF POINT     FAIR      12   8  84 NE5       29.70S WCI   4
GLENDIVE       CLOUDY    19  17  92 NE12      29.67F WCI   7
MILES CITY     CLOUDY    27  18  69 SW9       29.67F WCI  18
BAKER          MOCLDY    20  16  84 N6        29.66S WCI  12
$$

CITY           SKY/WX    TMP DP  RH WIND       PRES   REMARKS
BILLINGS       FAIR      27  13  55 W23G31    29.68S WCI  12
GREAT FALLS    FAIR      27   9  46 SW21      29.63S WCI  13
REGINA         PTCLDY     5   1  85 S8        29.68S WCI  -8
ESTEVAN        PTCLDY    -2  -4  92 SW3       29.69S
$$





USA.gov is the U.S. government's official web portal to all federal, state and local government web resources and services.